Weather History for San Jose, Costa Rica

Change the Weather History Date:

Friday, December 16, 2011

  Actual Average Record
Temperature  
Mean Temperature 73 °F -  
Max Temperature 80 °F 80 °F 85 °F (2012)
Min Temperature 66 °F 63 °F 60 °F (2007)
Cooling Degree Days 8    
Growing Degree Days 23 (Base 50)    
Moisture  
Dew Point 59 °F    
Average Humidity 64    
Maximum Humidity 78    
Minimum Humidity 40    
Precipitation  
Precipitation 0.00 in 0.02 in - ()
Sea Level Pressure  
Sea Level Pressure 29.93 in    
Wind  
Wind Speed 7 mph ()    
Max Wind Speed 14 mph    
Max Gust Speed -    
Visibility 8.3 miles    
Events Rain    
Averages and records for this station are not official NWS values.
T = Trace of Precipitation, MM = Missing Value Source: Averaged Metar Reports

Daily Weather History Graph

Daily Weather History Graph

Search for Another Location

Airport:

Trip Planner

Search our weather history database for the weather conditions in past years. The results will help you decide how hot, cold, wet, or windy it might be!

Date:

Astronomy

Dec. 16, 2011 Rise Set
Actual Time 5:46 AM CST 5:18 PM CST
Civil Twilight 5:23 AM CST 5:41 PM CST
Nautical Twilight 4:56 AM CST 6:07 PM CST
Astronomical Twilight 4:30 AM CST 6:34 PM CST
Moon 10:48 PM CST (12/16) 10:26 AM CST (12/16)
Length of Visible Light 12h 18m
Length of Day
11h 32m
Waning Gibbous, 64% of the Moon is Illuminated
Dec 16
Waning Gibbous
Dec 17
Last Quarter
Dec 24
New
Jan 1
First Quarter
Jan 9
Full

Hourly Weather History & Observations

Time (CST) Temp. Heat Index Dew Point Humidity Pressure Visibility Wind Dir Wind Speed Gust Speed Precip Events Conditions
12:00 AM 68 °F - 62 °F 74% 29.83 in 12 mi ENE 8.1 mph - - Rain Light Rain
12:00 AM 68.0 °F - 60.8 °F 78% 29.97 in 6.2 mi ENE 8.1 mph - N/A   Mostly Cloudy
1:00 AM 68.0 °F - 60.8 °F 78% 29.95 in 6.2 mi ENE 8.1 mph - N/A   Mostly Cloudy
2:00 AM 68.0 °F - 60.8 °F 78% 29.95 in - East 3.5 mph - N/A   Clear
3:00 AM 68 °F - 60 °F 70% 29.82 in 12 mi ENE 6.9 mph - -   Mostly Cloudy
3:00 AM 68.0 °F - 60.8 °F 78% 29.93 in - ENE 6.9 mph - N/A   Clear
4:00 AM 68.0 °F - 59.0 °F 73% 29.94 in - ENE 3.5 mph - N/A   Clear
5:00 AM 68.0 °F - 59.0 °F 73% 29.94 in - East 3.5 mph - N/A   Clear
6:00 AM 68 °F - 57 °F 60% 29.86 in 12 mi East 6.9 mph - -   Mostly Cloudy
6:00 AM 68.0 °F - 57.2 °F 68% 29.96 in - East 6.9 mph - N/A   Clear
7:00 AM 69.8 °F - 59.0 °F 68% - - ENE 2.3 mph - N/A   Clear
8:00 AM 71.6 °F - 59.0 °F 64% 30.00 in - East 9.2 mph - N/A   Clear
9:00 AM 72 °F - 58 °F 52% 29.89 in 12 mi ESE 12.7 mph - -   Mostly Cloudy
9:00 AM 73.4 °F - 59.0 °F 61% 30.01 in - ESE 12.7 mph - N/A   Clear
10:00 AM 75.2 °F - 59.0 °F 57% 29.98 in - East 10.4 mph - N/A   Clear
11:00 AM 77.0 °F - 59.0 °F 54% 29.98 in - East 10.4 mph - N/A   Clear
12:00 PM 80 °F - 60 °F 40% 29.85 in 12 mi ESE 9.2 mph - -   Mostly Cloudy
12:00 PM 80.6 °F 81.5 °F 60.8 °F 51% 29.96 in - ESE 9.2 mph - N/A   Clear
2:00 PM 77.0 °F - 59.0 °F 54% 29.91 in 6.2 mi ENE 12.7 mph - N/A   Mostly Cloudy
3:00 PM 77 °F - 59 °F 43% 29.80 in 12 mi East 10.4 mph - -   Scattered Clouds
3:00 PM 77.0 °F - 59.0 °F 54% 29.90 in 6.2 mi East 10.4 mph - N/A   Mostly Cloudy
4:00 PM 75.2 °F - 59.0 °F 57% 29.91 in 6.2 mi East 9.2 mph - N/A   Mostly Cloudy
5:00 PM 73.4 °F - 57.2 °F 57% 29.93 in 6.2 mi East 6.9 mph - N/A   Mostly Cloudy
6:00 PM 70 °F - 58 °F 56% 29.86 in 12 mi East 10.4 mph - -   Scattered Clouds
6:00 PM 69.8 °F - 57.2 °F 64% 29.95 in 6.2 mi East 10.4 mph - N/A   Mostly Cloudy
7:00 PM 69.8 °F - 59.0 °F 68% 29.97 in 6.2 mi ENE 8.1 mph - N/A   Mostly Cloudy
8:00 PM 69.8 °F - 59.0 °F 68% 29.98 in 6.2 mi ESE 12.7 mph - N/A   Mostly Cloudy
9:00 PM 68.0 °F - 60.8 °F 78% 29.99 in 6.2 mi East 11.5 mph - N/A   Scattered Clouds
10:00 PM 69.8 °F - 60.8 °F 73% 30.00 in 6.2 mi ESE 13.8 mph - N/A   Scattered Clouds
11:00 PM 69.8 °F - 60.8 °F 73% 29.99 in 6.2 mi ESE 13.8 mph - N/A   Scattered Clouds